GW5415 Weather Reports


Display with metric or nautical units.
time (UTC)temp
F
wind
direction
speed
MPH
gust
MPH
rain 1hr
in
rain 24hr
in
rain mn
in
humidity
%
barometer
mb
20260504002420 60 87 0.0 0.0 0.00 0.00 0.00 55 1015.7
20260504001918 61 87 0.0 0.0 0.00 0.00 0.00 53 1015.6
20260504001416 62 87 0.0 0.0 0.00 0.00 0.00 50 1015.8
20260504000912 62 88 0.0 0.0 0.00 0.00 0.00 49 1015.5
20260504000409 62 85 0.0 0.0 0.00 0.00 0.00 49 1015.6
20260503235906 63 84 0.0 0.0 0.00 0.00 0.00 48 1015.7
20260503235404 63 75 0.0 0.0 0.00 0.00 0.00 47 1015.5
20260503234901 63 84 0.0 1.0 0.00 0.00 0.00 48 1015.8
20260503234359 63 152 0.0 1.0 0.00 0.00 0.00 46 1015.8
20260503233856 64 82 0.0 0.0 0.00 0.00 0.00 46 1015.9
20260503233353 64 79 0.0 0.0 0.00 0.00 0.00 45 1015.7
20260503232849 64 78 0.0 0.0 0.00 0.00 0.00 45 1015.8
20260503232347 64 78 0.0 0.0 0.00 0.00 0.00 45 1015.9
20260503231844 65 83 0.0 0.0 0.00 0.00 0.00 43 1016.0
20260503231341 65 73 1.0 2.0 0.00 0.00 0.00 42 1015.9
20260503230837 65 83 0.0 1.0 0.00 0.00 0.00 42 1016.1
20260503230334 65 151 2.0 2.0 0.00 0.00 0.00 41 1016.1
20260503225832 66 86 1.0 1.0 0.00 0.00 0.00 42 1016.0
20260503225328 66 82 0.0 1.0 0.00 0.00 0.00 41 1016.1
20260503224824 66 104 2.0 2.0 0.00 0.00 0.00 42 1016.2
20260503224321 67 66 2.0 2.0 0.00 0.00 0.00 40 1016.1
20260503223819 67 85 0.0 0.0 0.00 0.00 0.00 40 1016.4
20260503223317 68 83 0.0 0.0 0.00 0.00 0.00 38 1016.2
20260503222812 69 87 1.0 1.0 0.00 0.00 0.00 38 1016.3
20260503222311 68 75 0.0 0.0 0.00 0.00 0.00 38 1016.4
20260503221809 68 110 2.0 3.0 0.00 0.00 0.00 39 1016.4
20260503221307 69 65 2.0 2.0 0.00 0.00 0.00 37 1016.4
20260503220802 68 73 1.0 1.0 0.00 0.00 0.00 38 1016.4
20260503220259 70 54 3.0 6.0 0.00 0.00 0.00 36 1016.5
20260503215756 69 121 1.0 2.0 0.00 0.00 0.00 36 1016.4
20260503215253 69 89 1.0 1.0 0.00 0.00 0.00 36 1016.6
20260503214751 69 59 1.0 1.0 0.00 0.00 0.00 40 1016.6
20260503214248 69 81 0.0 1.0 0.00 0.00 0.00 36 1016.5
20260503213746 69 85 1.0 1.0 0.00 0.00 0.00 37 1016.5
20260503213243 68 48 2.0 2.0 0.00 0.00 0.00 37 1016.8
20260503212739 68 71 1.0 2.0 0.00 0.00 0.00 39 1016.6
20260503212237 69 86 0.0 1.0 0.00 0.00 0.00 37 1016.9
20260503211735 68 90 1.0 2.0 0.00 0.00 0.00 38 1017.0
20260503211231 69 78 2.0 3.0 0.00 0.00 0.00 35 1017.0
20260503210726 69 118 1.0 2.0 0.00 0.00 0.00 39 1017.1
20260503210224 69 133 3.0 3.0 0.00 0.00 0.00 36 1017.1
20260503205719 69 68 1.0 2.0 0.00 0.00 0.00 36 1017.1
20260503205216 68 82 0.0 1.0 0.00 0.00 0.00 37 1017.0
20260503204712 69 182 3.0 4.0 0.00 0.00 0.00 34 1017.4
20260503204210 68 70 1.0 1.0 0.00 0.00 0.00 35 1017.3
20260503203707 68 93 2.0 2.0 0.00 0.00 0.00 40 1017.5
20260503203205 68 79 1.0 1.0 0.00 0.00 0.00 37 1017.5
20260503202701 68 118 2.0 2.0 0.00 0.00 0.00 39 1017.6
20260503202159 68 100 3.0 4.0 0.00 0.00 0.00 37 1017.4
20260503201657 68 88 0.0 1.0 0.00 0.00 0.00 40 1017.4
20260503201155 69 93 1.0 1.0 0.00 0.00 0.00 36 1017.9
20260503200650 68 77 0.0 1.0 0.00 0.00 0.00 39 1017.9
20260503200147 70 88 1.0 1.0 0.00 0.00 0.00 37 1018.0
20260503195644 68 62 0.0 1.0 0.00 0.00 0.00 42 1018.2
20260503195141 69 58 1.0 2.0 0.00 0.00 0.00 35 1018.2
20260503194638 68 83 0.0 0.0 0.00 0.00 0.00 34 1018.3
20260503194133 67 90 1.0 2.0 0.00 0.00 0.00 37 1018.4
20260503193630 66 45 1.0 2.0 0.00 0.00 0.00 39 1018.4
20260503193126 66 71 1.0 1.0 0.00 0.00 0.00 43 1018.7
20260503192622 66 118 4.0 4.0 0.00 0.00 0.00 37 1018.5
20260503192117 65 74 0.0 0.0 0.00 0.00 0.00 40 1018.6
20260503191615 66 65 2.0 2.0 0.00 0.00 0.00 40 1018.4
20260503191111 67 59 0.0 1.0 0.00 0.00 0.00 38 1018.6
20260503190609 66 67 2.0 2.0 0.00 0.00 0.00 37 1018.6
20260503190106 66 57 3.0 4.0 0.00 0.00 0.00 36 1018.6
20260503185602 66 95 2.0 3.0 0.00 0.00 0.00 42 1018.8
20260503185102 65 68 1.0 1.0 0.00 0.00 0.00 38 1018.8
20260503184557 66 95 1.0 2.0 0.00 0.00 0.00 35 1019.0
20260503184054 65 75 1.0 1.0 0.00 0.00 0.00 37 1019.0
20260503183551 65 21 3.0 4.0 0.00 0.00 0.00 40 1019.1
20260503183048 64 88 0.0 0.0 0.00 0.00 0.00 41 1019.0
20260503182546 64 72 0.0 0.0 0.00 0.00 0.00 43 1019.2
20260503182044 64 52 2.0 2.0 0.00 0.00 0.00 40 1019.4
20260503181541 65 101 0.0 1.0 0.00 0.00 0.00 39 1019.4
20260503181037 64 72 0.0 1.0 0.00 0.00 0.00 38 1019.4
20260503180535 64 84 0.0 1.0 0.00 0.00 0.00 43 1019.5
20260503180032 62 85 2.0 2.0 0.00 0.00 0.00 39 1019.5
20260503175529 63 94 4.0 4.0 0.00 0.00 0.00 40 1019.5
20260503175026 64 69 1.0 1.0 0.00 0.00 0.00 37 1019.6
20260503174524 64 77 1.0 1.0 0.00 0.00 0.00 42 1019.6
20260503174020 63 140 2.0 3.0 0.00 0.00 0.00 44 1019.6
20260503173515 64 78 1.0 2.0 0.00 0.00 0.00 43 1020.1
20260503173011 63 76 0.0 1.0 0.00 0.00 0.00 44 1019.8
20260503172509 64 46 2.0 3.0 0.00 0.00 0.00 44 1020.1
20260503172006 62 61 1.0 2.0 0.00 0.00 0.00 41 1020.1
20260503171502 62 74 0.0 0.0 0.00 0.00 0.00 45 1020.0
20260503171000 62 85 2.0 2.0 0.00 0.00 0.00 40 1020.0
20260503170456 62 94 1.0 1.0 0.00 0.00 0.00 35 1020.2
20260503150848 59 68 0.0 0.0 0.00 0.00 0.00 47 1021.2
20260503150344 58 81 0.0 0.0 0.00 0.00 0.00 47 1021.1
20260503140309 56 65 1.0 2.0 0.00 0.00 0.00 60 1021.1
20260503131238 53 66 2.0 2.0 0.00 0.00 0.00 69 1021.0
20260503130736 53 65 0.0 1.0 0.00 0.00 0.00 67 1020.9
20260503130233 53 65 1.0 2.0 0.00 0.00 0.00 69 1021.2
20260503120159 44 65 0.0 0.0 0.00 0.00 0.00 94 1020.9
20260503110626 38 65 0.0 0.0 0.00 0.00 0.00 97 1019.8
20260503110124 38 65 0.0 0.0 0.00 0.00 0.00 97 1019.7
20260503081439 42 66 0.0 0.0 0.00 0.00 0.00 95 1018.5
20260503080937 42 66 0.0 0.0 0.00 0.00 0.00 95 1018.4
20260503080433 42 66 0.0 0.0 0.00 0.00 0.00 95 1018.2
20260503072909 44 66 0.0 0.0 0.00 0.00 0.00 92 1018.0
20260503072407 44 66 0.0 0.0 0.00 0.00 0.00 91 1018.0
20260503071903 44 66 0.0 0.0 0.00 0.00 0.00 91 1017.9
20260503071401 44 66 0.0 0.0 0.00 0.00 0.00 90 1017.7
20260503070856 44 66 0.0 0.0 0.00 0.00 0.00 89 1017.9
20260503070354 45 66 0.0 0.0 0.00 0.00 0.00 89 1017.7
20260503060320 44 66 0.0 0.0 0.00 0.00 0.00 90 1017.6
20260503054807 44 65 0.0 0.0 0.00 0.00 0.00 89 1017.5
20260503054303 45 65 0.0 0.0 0.00 0.00 0.00 88 1017.5
20260503053801 45 65 0.0 0.0 0.00 0.00 0.00 86 1017.7
20260503053300 45 66 0.0 0.0 0.00 0.00 0.00 86 1017.6
20260503052755 45 66 0.0 0.0 0.00 0.00 0.00 85 1017.6
20260503052253 45 66 1.0 1.0 0.00 0.00 0.00 85 1017.4
20260503051748 45 65 0.0 0.0 0.00 0.00 0.00 84 1017.5
20260503051246 45 65 0.0 0.0 0.00 0.00 0.00 85 1017.5
20260503050742 46 65 0.0 0.0 0.00 0.00 0.00 83 1017.5
20260503050238 46 65 0.0 0.0 0.00 0.00 0.00 83 1017.5
20260503045736 46 65 0.0 0.0 0.00 0.00 0.00 82 1017.6
20260503045234 46 65 0.0 0.0 0.00 0.00 0.00 82 1017.5
20260503044730 46 65 0.0 0.0 0.00 0.00 0.00 82 1017.5
20260503044227 47 65 0.0 0.0 0.00 0.00 0.00 80 1017.4
20260503043724 47 65 0.0 0.0 0.00 0.00 0.00 79 1017.4
20260503043221 47 65 0.0 0.0 0.00 0.00 0.00 78 1017.4
20260503042717 48 65 0.0 0.0 0.00 0.00 0.00 78 1017.4
20260503042214 48 65 0.0 0.0 0.00 0.00 0.00 75 1017.2
20260503041710 49 65 0.0 0.0 0.00 0.00 0.00 74 1017.4
20260503041208 49 65 0.0 0.0 0.00 0.00 0.00 74 1017.1
20260503040705 50 65 0.0 1.0 0.00 0.00 0.00 73 1017.2
20260503040203 50 63 0.0 0.0 0.00 0.00 0.00 72 1017.2
20260503035659 50 64 0.0 1.0 0.00 0.00 0.00 71 1017.1
20260503035157 50 63 0.0 0.0 0.00 0.00 0.00 72 1017.0
20260503034654 51 63 0.0 0.0 0.00 0.00 0.00 70 1017.1
20260503034151 51 64 0.0 0.0 0.00 0.00 0.00 69 1017.1
20260503033648 52 64 1.0 1.0 0.00 0.00 0.00 68 1017.1
20260503033145 52 76 0.0 0.0 0.00 0.00 0.00 67 1017.0
20260503032644 53 69 0.0 0.0 0.00 0.00 0.00 66 1016.9
20260503032142 53 68 1.0 2.0 0.00 0.00 0.00 66 1017.1
20260503031639 53 70 3.0 4.0 0.00 0.00 0.00 65 1017.1
20260503031137 53 3 2.0 3.0 0.00 0.00 0.00 65 1017.1
20260503030632 53 80 4.0 4.0 0.00 0.00 0.00 65 1017.2
20260503030129 53 87 2.0 4.0 0.00 0.00 0.00 65 1017.1
20260503025626 53 22 1.0 1.0 0.00 0.00 0.00 65 1017.0
20260503025124 54 68 1.0 1.0 0.00 0.00 0.00 63 1017.0
20260503024620 54 74 6.0 8.0 0.00 0.00 0.00 61 1016.9
20260503024117 55 11 1.0 2.0 0.00 0.00 0.00 60 1016.9
20260503023614 55 89 3.0 3.0 0.00 0.00 0.00 57 1016.6
20260503023112 55 53 1.0 2.0 0.00 0.00 0.00 56 1016.5
20260503022607 55 324 1.0 2.0 0.00 0.00 0.00 55 1016.3
20260503022102 55 80 1.0 2.0 0.00 0.00 0.00 56 1016.4
20260503021600 54 62 1.0 1.0 0.00 0.00 0.00 58 1016.2
20260503021056 53 76 0.0 0.0 0.00 0.00 0.00 61 1016.3
20260503020553 53 76 0.0 0.0 0.00 0.00 0.00 62 1016.3
20260503020050 53 76 0.0 0.0 0.00 0.00 0.00 63 1016.2
20260503015547 54 90 0.0 0.0 0.00 0.00 0.00 61 1016.0
20260503015044 53 70 0.0 0.0 0.00 0.00 0.00 59 1016.0
20260503014540 53 72 0.0 0.0 0.00 0.00 0.00 59 1015.9
20260503014038 53 73 0.0 0.0 0.00 0.00 0.00 61 1015.7
20260503013535 53 73 0.0 0.0 0.00 0.00 0.00 59 1015.6
20260503013033 52 72 0.0 0.0 0.00 0.00 0.00 60 1015.7
20260503012530 52 72 0.0 0.0 0.00 0.00 0.00 62 1015.6
20260503012026 52 72 0.0 0.0 0.00 0.00 0.00 60 1015.5
20260503011523 53 72 0.0 0.0 0.00 0.00 0.00 61 1015.3
20260503011020 53 72 0.0 0.0 0.00 0.00 0.00 58 1015.4
20260503010516 53 72 0.0 0.0 0.00 0.00 0.00 56 1015.2
20260503010014 54 73 0.0 0.0 0.00 0.00 0.00 55 1015.1
20260503005511 54 68 0.0 1.0 0.00 0.00 0.00 54 1015.1
20260503005008 55 66 1.0 1.0 0.00 0.00 0.00 54 1015.1
20260503004504 55 78 1.0 1.0 0.00 0.00 0.00 55 1015.1
20260503004002 54 344 1.0 3.0 0.00 0.00 0.00 55 1014.7
20260503003459 54 67 0.0 0.0 0.00 0.00 0.00 54 1014.8
20260503002956 55 67 0.0 0.0 0.00 0.00 0.00 54 1014.8